Johnstown, NE

3:07 AM CST on January 19, 2017 (GMT -0600)
Ainsworth Municipal

Weather History for KANW - February, 2013

Change the Weather History Date:

Wednesday, February 6, 2013

  Actual Average Record
Temperature  
Mean Temperature 43 °F -  
Max Temperature 51 °F 36 °F 59 °F (2009)
Min Temperature 35 °F 16 °F -12 °F (2014)
Degree Days  
Heating Degree Days 22    
Moisture  
Dew Point 27 °F    
Average Humidity 58    
Maximum Humidity 74    
Minimum Humidity 38    
Precipitation  
Precipitation 0.00 in - - ()
Sea Level Pressure  
Sea Level Pressure 29.83 in    
Wind  
Wind Speed 12 mph (West)    
Max Wind Speed 22 mph    
Max Gust Speed 28 mph    
Visibility 10 miles    
Events      
Averages and records for this station are not official NWS values.
T = Trace of Precipitation, MM = Missing Value Source: NWS Daily Summary

Daily Weather History Graph

Daily Weather History Graph

Search for Another Location

Airport or City:

Trip Planner

Search our weather history database for the weather conditions in past years. The results will help you decide how hot, cold, wet, or windy it might be!

Date:

Astronomy

Feb. 06, 2013 Rise Set
Actual Time 7:48 AM CST 6:00 PM CST
Civil Twilight 7:18 AM CST 6:30 PM CST
Nautical Twilight 6:45 AM CST 7:03 PM CST
Astronomical Twilight 6:12 AM CST 7:36 PM CST
Moon 4:36 AM CST (2/6) 2:18 PM CST (2/6)
Length of Visible Light 11h 11m
Length of Day
10h 12m
Waning Crescent, 17% of the Moon is Illuminated
Feb 6
Waning Crescent
Feb 10
New
Feb 17
First Quarter
Feb 25
Full
Mar 4
Last Quarter

Hourly Weather History & Observations

Time (CST) Temp. Windchill Dew Point Humidity Pressure Visibility Wind Dir Wind Speed Gust Speed Precip Events Conditions
12:15 AM 38.3 °F 29.7 °F 23.0 °F 54% 29.88 in 10.0 mi SSE 15.0 mph - N/A   Overcast
12:35 AM 37.9 °F 29.2 °F 23.0 °F 55% 29.87 in 10.0 mi SSE 15.0 mph - N/A   Overcast
12:55 AM 36.3 °F 28.0 °F 23.0 °F 59% 29.87 in 10.0 mi SSE 12.7 mph - N/A   Scattered Clouds
2:15 AM 37.4 °F 27.8 °F 24.8 °F 60% 29.83 in 10.0 mi South 17.3 mph - N/A   Clear
2:35 AM 36.1 °F 26.5 °F 25.3 °F 65% 29.82 in 10.0 mi South 16.1 mph - N/A   Clear
2:55 AM 36.7 °F 27.2 °F 26.2 °F 66% 29.81 in 10.0 mi South 16.1 mph 21.9 mph N/A   Clear
3:15 AM 36.7 °F 26.3 °F 26.6 °F 67% 29.80 in 10.0 mi South 19.6 mph 24.2 mph N/A   Clear
3:35 AM 36.5 °F 26.0 °F 26.8 °F 68% 29.78 in 10.0 mi South 19.6 mph - N/A   Clear
3:55 AM 36.3 °F 25.5 °F 27.3 °F 70% 29.77 in 10.0 mi South 20.7 mph 25.3 mph N/A   Clear
4:15 AM 35.8 °F 25.7 °F 27.5 °F 72% 29.77 in 10.0 mi South 17.3 mph - N/A   Clear
4:35 AM 37.8 °F 28.3 °F 28.4 °F 69% 29.77 in 10.0 mi SSW 17.3 mph - N/A   Clear
4:55 AM 38.8 °F 28.8 °F 28.4 °F 66% 29.76 in 10.0 mi SSW 20.7 mph 25.3 mph N/A   Clear
5:15 AM 38.8 °F 28.5 °F 28.0 °F 65% 29.76 in 10.0 mi SSW 21.9 mph 27.6 mph N/A   Clear
5:35 AM 38.5 °F 28.6 °F 27.9 °F 66% 29.76 in 10.0 mi SSW 19.6 mph 23.0 mph N/A   Clear
5:55 AM 37.4 °F 27.8 °F 28.4 °F 70% 29.76 in 10.0 mi SSW 17.3 mph - N/A   Clear
6:15 AM 37.8 °F 28.6 °F 27.5 °F 67% 29.76 in 10.0 mi SSW 16.1 mph - N/A   Clear
6:35 AM 37.6 °F 29.1 °F 27.5 °F 67% 29.76 in 10.0 mi SSW 13.8 mph - N/A   Clear
6:55 AM 37.8 °F 29.4 °F 27.5 °F 67% 29.76 in 10.0 mi SSW 13.8 mph - N/A   Clear
7:15 AM 37.6 °F 29.6 °F 27.5 °F 67% 29.75 in 10.0 mi SSW 12.7 mph - N/A   Clear
7:35 AM 37.9 °F 30.5 °F 27.5 °F 66% 29.76 in 10.0 mi SSW 11.5 mph - N/A   Clear
7:55 AM 37.9 °F 30.0 °F 27.3 °F 66% 29.75 in 10.0 mi SSW 12.7 mph - N/A   Clear
8:15 AM 38.5 °F 30.7 °F 27.5 °F 65% 29.76 in 10.0 mi SSW 12.7 mph - N/A   Clear
8:35 AM 39.4 °F 33.2 °F 27.1 °F 62% 29.76 in 10.0 mi SW 9.2 mph - N/A   Clear
8:55 AM 39.9 °F 33.9 °F 27.0 °F 60% 29.76 in 10.0 mi SW 9.2 mph - N/A   Clear
9:15 AM 40.6 °F 34.8 °F 26.8 °F 58% 29.76 in 10.0 mi SW 9.2 mph - N/A   Clear
9:35 AM 41.5 °F 35.9 °F 26.6 °F 55% 29.77 in 10.0 mi SW 9.2 mph - N/A   Scattered Clouds
9:55 AM 42.1 °F 36.6 °F 26.6 °F 54% 29.78 in 10.0 mi SW 9.2 mph - N/A   Clear
10:15 AM 42.8 °F 36.6 °F 26.6 °F 53% 29.78 in 10.0 mi SW 11.5 mph - N/A   Clear
10:35 AM 44.2 °F 39.7 °F 26.8 °F 50% 29.78 in 10.0 mi SW 8.1 mph - N/A   Clear
10:55 AM 45.3 °F 42.3 °F 26.6 °F 48% 29.78 in 10.0 mi SW 5.8 mph - N/A   Clear
11:15 AM 46.4 °F 42.4 °F 26.2 °F 45% 29.78 in 10.0 mi WSW 8.1 mph - N/A   Clear
11:35 AM 47.3 °F - 26.2 °F 44% 29.78 in 10.0 mi West 8.1 mph - N/A   Clear
11:55 AM 47.7 °F - 25.7 °F 42% 29.78 in 10.0 mi West 5.8 mph - N/A   Clear
12:15 PM 48.0 °F - 25.9 °F 42% 29.78 in 10.0 mi West 5.8 mph - N/A   Clear
12:35 PM 48.2 °F - 25.7 °F 42% 29.78 in 10.0 mi WNW 8.1 mph - N/A   Clear
12:55 PM 48.2 °F - 26.2 °F 42% 29.78 in 10.0 mi NW 4.6 mph - N/A   Clear
1:15 PM 48.4 °F - 26.2 °F 42% 29.78 in 10.0 mi NW 4.6 mph - N/A   Clear
1:35 PM 49.1 °F - 26.2 °F 41% 29.77 in 10.0 mi NW 6.9 mph - N/A   Clear
2:15 PM 50.0 °F - 26.2 °F 40% 29.76 in 10.0 mi NNW 8.1 mph - N/A   Clear
2:35 PM 50.9 °F - 26.2 °F 38% 29.77 in 10.0 mi NNW 10.4 mph - N/A   Clear
2:55 PM 51.1 °F - 26.4 °F 38% 29.77 in 10.0 mi North 9.2 mph - N/A   Clear
3:15 PM 50.2 °F - 26.6 °F 40% 29.78 in 10.0 mi North 9.2 mph - N/A   Clear
3:35 PM 50.4 °F - 28.0 °F 42% 29.79 in 10.0 mi North 8.1 mph - N/A   Clear
3:55 PM 50.9 °F - 28.0 °F 41% 29.80 in 10.0 mi North 9.2 mph - N/A   Clear
4:15 PM 50.9 °F - 28.0 °F 41% 29.81 in 10.0 mi North 11.5 mph - N/A   Clear
4:35 PM 50.0 °F - 26.6 °F 40% 29.82 in 10.0 mi North 11.5 mph - N/A   Clear
4:55 PM 48.9 °F - 27.5 °F 43% 29.83 in 10.0 mi North 13.8 mph - N/A   Clear
5:15 PM 47.3 °F - 27.5 °F 46% 29.83 in 10.0 mi North 12.7 mph - N/A   Clear
5:35 PM 45.7 °F 39.8 °F 27.7 °F 49% 29.85 in 10.0 mi North 12.7 mph - N/A   Clear
5:55 PM 43.9 °F 39.3 °F 28.0 °F 54% 29.85 in 10.0 mi North 8.1 mph - N/A   Clear
6:15 PM 42.6 °F 37.8 °F 28.4 °F 57% 29.87 in 10.0 mi North 8.1 mph - N/A   Clear
6:35 PM 40.8 °F 36.9 °F 28.4 °F 61% 29.87 in 10.0 mi North 5.8 mph - N/A   Clear
6:55 PM 40.3 °F 36.3 °F 29.1 °F 64% 29.88 in 10.0 mi North 5.8 mph - N/A   Clear
7:15 PM 40.8 °F 36.2 °F 29.1 °F 63% 29.90 in 10.0 mi NNW 6.9 mph - N/A   Clear
7:35 PM 40.6 °F 36.7 °F 28.8 °F 63% 29.90 in 10.0 mi NNW 5.8 mph - N/A   Clear
7:55 PM 38.1 °F 34.6 °F 28.4 °F 68% 29.91 in 10.0 mi NNW 4.6 mph - N/A   Clear
8:15 PM 37.6 °F 33.1 °F 28.6 °F 70% 29.92 in 10.0 mi NNW 5.8 mph - N/A   Clear
8:35 PM 39.7 °F 35.6 °F 28.6 °F 64% 29.92 in 10.0 mi NNW 5.8 mph - N/A   Clear
8:55 PM 39.6 °F 35.4 °F 28.4 °F 64% 29.94 in 10.0 mi NW 5.8 mph - N/A   Clear
9:15 PM 38.3 °F 35.9 °F 27.5 °F 65% 29.94 in 10.0 mi NW 3.5 mph - N/A   Clear
9:35 PM 36.5 °F 33.9 °F 27.9 °F 71% 29.95 in 10.0 mi WNW 3.5 mph - N/A   Clear
9:55 PM 36.3 °F 33.7 °F 28.0 °F 72% 29.95 in 10.0 mi WNW 3.5 mph - N/A   Clear
10:15 PM 35.6 °F 31.7 °F 27.7 °F 73% 29.96 in 10.0 mi WNW 4.6 mph - N/A   Scattered Clouds
10:35 PM 35.2 °F 30.3 °F 27.7 °F 74% 29.97 in 10.0 mi WNW 5.8 mph - N/A   Clear
10:55 PM 37.0 °F - 28.8 °F 72% 29.97 in 10.0 mi Calm Calm - N/A   Scattered Clouds
11:15 PM 37.0 °F 32.4 °F 28.0 °F 70% 29.97 in 10.0 mi NW 5.8 mph - N/A   Mostly Cloudy
11:35 PM 36.7 °F 31.2 °F 28.4 °F 72% 29.98 in 10.0 mi NW 6.9 mph - N/A   Overcast
11:55 PM 37.0 °F 32.4 °F 28.0 °F 70% 29.99 in 10.0 mi NNW 5.8 mph - N/A   Mostly Cloudy